PROPCUBE 1 (FLORA)

Last updated on Sat Aug 15 2026 00:03:44 GMT+0000 (Coordinated Universal Time)

1 40976U 15058N 26226.41283657 .00001553 00000+0 15291-3 0 9993 2 40976 64.7730 114.7422 0134901 38.7708 322.2989 14.89491631124937
UTC large
Height (km)
Speed (km/s)
/
Latitude / Longitude
Inclination (degrees)
Orbital Period (minutes)
Azimuth
Elevation
Range (km)
Doppler Factor

Next 0 passes for location: London (51.5072 / 0.1276)

No passes found over London.
PROPCUBE 1 (FLORA)